Theta_e
308 311 314 316 317 318 317 315 313 313 313 310 311 310 310 313 316 315 318 322 322 341 347 344 345 340 341 341 344 347 349 348 348 347 343 349 347 346 346 345 347 347 348 346 346 342 334 331 331 330 329 326 323 322 322 326 333 339 341 341 342 341 340 339 339 339 338 336 333 329 328 330 334 336 337 338 338 336 335 334 336 338 338 338 338 338 338 338 339 339 338 338 338 338 337 337 336
310 312 313 317 318 318 317 313 313 313 311 308 310 311 311 313 317 315 319 326 330 344 347 345 347 346 348 346 348 349 350 348 347 349 348 347 346 347 346 345 348 348 348 346 346 344 336 331 331 330 331 329 324 323 321 321 325 331 335 336 336 335 333 332 332 331 331 329 328 329 332 335 338 339 340 340 340 339 338 337 337 337 337 336 336 336 338 337 338 338 338 338 338 338 337 336 335
310 310 313 318 316 315 316 313 312 312 308 305 307 311 312 313 316 314 317 326 336 345 344 344 347 345 347 348 349 350 350 348 345 346 345 346 346 346 346 347 348 347 347 346 346 345 339 332 330 331 331 330 325 324 324 325 325 325 327 328 327 326 325 326 327 329 329 331 334 337 338 339 340 340 340 341 340 341 340 339 337 337 338 337 336 335 337 337 338 338 336 337 337 337 336 335 334
309 309 315 318 314 314 316 314 313 312 307 306 307 310 313 313 316 314 314 319 326 338 344 345 348 345 347 350 348 349 351 348 346 345 345 345 346 347 347 347 347 347 346 345 345 344 341 333 330 331 332 332 328 325 326 330 332 329 329 328 327 326 325 326 330 334 336 338 339 340 340 340 340 340 341 340 340 340 341 340 338 338 338 339 338 337 337 337 337 337 336 335 335 336 335 333 333
307 309 314 315 314 315 315 314 314 311 308 308 308 310 313 314 316 313 315 315 314 329 344 346 348 346 346 349 348 351 351 348 347 346 346 345 346 346 347 347 347 346 345 345 345 344 342 334 331 331 332 333 330 328 327 330 333 333 334 333 333 331 331 331 333 335 336 339 341 341 342 341 341 341 341 340 340 340 340 340 339 339 339 339 339 337 336 337 337 337 336 335 335 336 334 332 332
308 311 312 313 314 313 313 311 311 312 311 312 310 312 314 314 315 314 314 314 318 329 342 346 347 347 348 348 348 350 348 348 348 346 345 345 346 346 347 347 346 346 345 344 344 344 341 335 332 331 333 334 332 329 328 329 330 332 333 333 334 334 335 334 334 335 334 336 340 341 342 341 341 341 341 340 340 340 340 339 339 339 339 339 338 337 337 336 336 337 337 337 337 337 335 334 333
310 312 313 313 312 312 315 312 310 312 311 313 313 314 314 314 314 314 314 314 327 338 341 346 345 347 349 347 348 348 345 348 347 346 345 345 346 346 347 346 346 346 344 344 343 343 342 337 332 331 333 335 336 333 329 329 330 331 332 331 332 332 333 332 332 333 333 334 337 341 341 341 341 340 340 340 340 339 339 339 337 337 338 338 338 338 336 335 335 336 337 337 338 337 337 336 335
311 312 312 313 314 313 315 313 312 313 311 312 312 314 315 316 314 313 315 312 326 343 343 346 345 348 349 346 350 348 345 347 346 345 345 345 345 345 346 345 346 345 345 343 343 343 343 338 333 331 333 336 339 338 335 334 333 335 335 333 331 330 330 328 329 331 332 333 337 340 340 339 339 339 339 339 338 338 338 337 335 335 337 337 336 334 333 333 334 336 335 336 337 335 335 335 334
310 311 310 313 314 312 313 312 313 312 312 313 312 315 316 316 315 313 316 311 322 344 348 345 344 348 349 348 351 347 344 346 345 345 344 344 344 345 345 345 345 345 345 343 343 344 343 339 336 333 334 337 340 341 339 339 339 339 339 336 333 331 330 329 330 333 334 335 336 338 338 337 337 337 337 337 337 337 337 336 334 334 334 334 333 332 331 330 332 335 334 334 334 333 334 333 333
310 310 311 313 313 311 311 310 312 312 312 313 312 315 315 313 313 311 314 310 323 346 347 343 345 347 349 350 351 347 345 345 345 345 344 344 344 344 344 344 345 344 344 343 344 344 343 341 337 334 335 338 340 341 341 341 340 339 338 337 336 334 333 333 335 336 335 334 334 335 335 335 335 335 336 336 336 336 336 334 333 334 333 333 332 332 332 330 330 332 333 334 333 332 332 331 331
312 310 310 313 311 310 310 309 311 312 312 313 312 314 313 311 310 311 312 314 329 347 345 344 348 347 348 349 349 346 344 344 345 345 344 344 343 343 344 344 344 344 344 344 344 344 343 343 339 334 334 337 339 340 341 340 339 338 338 337 337 337 337 336 336 334 331 330 328 328 330 331 332 333 334 334 334 334 334 333 333 333 333 332 332 333 332 331 331 331 332 333 333 332 330 330 328
313 311 311 313 312 310 310 310 311 314 315 313 313 314 311 309 311 310 309 322 340 348 345 346 347 346 349 349 347 344 343 344 345 344 343 343 343 343 343 344 344 344 344 344 344 344 344 343 341 333 333 336 337 338 339 340 339 338 338 337 337 337 337 337 334 329 325 324 323 324 325 327 328 329 330 331 333 333 333 333 332 332 332 331 331 330 329 330 332 330 329 329 330 330 328 328 327
313 311 312 312 311 312 311 311 311 315 317 314 314 311 311 313 316 320 323 335 345 346 344 343 344 346 348 349 347 345 344 343 343 343 343 343 343 343 344 344 344 344 344 344 344 343 343 343 341 335 331 333 333 335 337 339 339 337 337 336 336 336 336 337 333 326 324 324 325 325 325 327 329 328 327 328 332 333 332 332 332 332 332 329 327 324 326 330 330 327 326 326 328 329 327 326 325
312 310 312 312 310 312 311 311 311 312 314 313 312 308 316 324 322 330 340 343 345 343 344 343 342 346 347 349 349 346 344 343 342 343 343 343 343 342 343 343 343 344 344 342 341 341 342 342 341 338 333 333 332 335 337 338 337 335 336 336 336 335 336 337 331 325 325 327 328 329 329 331 332 330 327 326 329 330 330 331 330 330 329 326 324 322 325 328 327 325 325 325 326 328 328 327 324
312 310 313 313 310 311 310 311 311 311 312 312 312 307 317 331 328 335 343 342 345 341 342 344 341 343 346 349 350 346 343 342 342 342 342 343 343 342 342 342 342 343 342 340 339 339 341 341 342 341 338 335 334 335 336 337 337 336 335 336 336 335 336 336 329 325 328 329 330 331 332 332 332 331 329 327 326 327 327 328 327 327 327 326 324 323 325 326 326 326 326 325 325 326 327 326 324
309 310 312 313 310 310 310 311 311 311 313 311 311 309 314 330 335 340 340 340 344 341 341 343 340 340 342 346 347 345 343 342 342 342 342 342 342 342 341 341 342 341 340 340 339 339 340 340 341 341 339 336 335 335 335 336 337 336 335 336 336 335 337 335 327 327 330 331 331 332 333 333 333 331 330 329 327 327 327 327 327 327 328 328 327 325 324 326 326 326 327 326 325 325 325 325 325
308 311 313 313 310 310 310 311 311 310 313 312 310 310 310 321 335 341 338 340 343 342 342 341 341 340 341 344 346 345 342 342 341 342 341 341 341 341 341 340 340 339 339 339 338 338 337 337 337 337 337 336 337 337 336 336 336 335 335 336 336 336 338 334 327 328 331 332 333 333 332 333 333 332 332 331 329 328 328 328 330 330 330 330 329 328 325 325 326 326 326 325 325 325 325 325 326
310 313 312 311 311 310 311 312 311 311 312 312 309 310 310 312 332 342 339 341 341 342 342 340 342 341 343 346 345 343 342 341 341 341 341 341 340 340 339 339 338 338 338 339 339 337 337 337 337 336 337 337 338 338 337 337 336 336 337 337 337 337 337 334 329 331 333 332 333 333 332 333 332 332 332 332 331 329 328 329 330 330 330 330 331 330 328 327 326 326 326 325 325 326 326 325 326
311 313 312 311 311 310 312 312 310 311 311 312 310 309 311 309 325 338 340 342 340 343 344 341 344 344 344 344 343 343 341 341 341 341 341 340 340 339 338 338 337 337 337 338 339 338 337 338 338 339 338 337 338 339 338 337 337 337 338 338 337 337 337 334 331 333 334 333 333 333 333 333 332 332 332 331 330 330 328 329 329 329 329 329 329 330 329 329 328 327 327 326 326 326 326 326 326
311 311 312 312 311 311 311 311 310 312 310 311 311 308 312 308 314 328 338 342 341 343 345 343 346 346 344 343 343 343 341 341 341 341 340 340 339 338 338 337 336 337 336 338 339 338 338 338 338 338 337 337 338 339 339 338 338 338 338 338 337 338 337 334 332 333 334 334 334 333 334 334 334 334 333 332 330 330 329 328 329 329 329 328 327 328 329 329 330 329 328 327 327 326 325 325 327
311 310 313 311 310 311 312 312 310 309 309 310 311 310 312 309 312 326 338 341 340 340 342 343 345 344 344 343 342 342 342 341 341 341 340 339 339 337 337 336 336 337 337 338 339 338 338 339 339 338 337 337 338 340 339 339 340 339 338 338 338 338 338 335 333 334 334 334 334 334 334 334 335 334 334 333 331 331 331 330 330 329 329 328 327 327 327 327 329 330 329 328 328 326 325 324 326
310 310 312 310 309 311 311 312 311 310 309 309 310 311 310 309 316 331 336 330 327 332 336 339 341 342 343 343 343 342 341 341 341 341 340 339 338 337 336 336 336 337 336 337 339 339 338 339 340 339 339 339 339 339 339 340 340 339 339 339 338 338 338 335 333 334 334 333 335 335 335 335 335 335 334 334 332 332 332 332 330 328 328 328 327 326 326 327 327 328 328 329 328 327 325 324 325
311 310 310 309 308 310 311 311 311 311 310 309 310 309 309 310 316 328 331 323 326 333 335 337 340 342 343 343 342 342 340 340 341 341 340 339 338 337 336 336 336 336 336 336 338 338 337 338 339 339 339 339 339 339 339 340 340 339 339 339 339 338 337 335 332 334 335 335 335 335 335 335 335 335 334 334 334 333 332 332 331 329 328 327 326 326 327 328 329 328 328 328 327 327 327 326 326
310 311 310 309 308 309 311 310 310 310 309 310 308 307 310 308 312 327 335 333 335 337 336 336 340 342 342 342 342 341 340 341 341 340 339 338 338 337 336 336 336 336 336 336 337 337 337 338 338 338 337 337 337 338 340 339 338 337 339 338 338 335 334 333 332 332 334 335 335 335 334 335 335 335 334 333 334 334 332 332 331 330 329 327 326 326 327 328 331 330 330 328 328 327 328 328 328
309 311 310 309 308 309 310 308 309 309 307 308 307 308 310 308 314 330 340 338 338 338 337 338 339 340 341 342 342 342 341 341 341 340 339 338 337 336 335 335 335 335 335 335 336 337 338 338 337 336 335 336 336 337 339 338 338 338 338 336 334 333 331 331 332 332 333 335 335 334 334 335 335 334 332 331 332 334 333 331 331 332 330 329 327 327 328 329 331 332 331 331 329 328 329 329 330
309 311 310 310 309 309 309 308 310 309 307 306 308 310 311 317 322 329 338 338 339 338 338 339 338 340 341 342 342 341 341 340 341 340 340 339 337 336 335 336 335 335 335 335 336 336 337 338 337 336 334 334 334 336 337 337 338 338 337 334 331 331 330 331 333 332 334 336 334 332 334 334 333 332 332 332 333 333 333 333 333 333 332 331 330 330 330 330 331 331 332 332 330 330 330 329 330
309 310 309 310 309 309 309 310 310 308 308 308 310 310 315 326 324 323 338 338 339 338 338 338 339 341 340 342 342 341 342 341 341 340 340 339 337 337 335 335 335 335 335 335 336 336 337 337 335 333 331 330 331 333 335 335 337 337 337 336 334 332 330 331 332 333 335 334 331 331 334 334 332 330 330 332 334 334 334 334 334 334 333 332 333 332 331 331 331 331 331 332 331 331 330 330 330
308 309 310 310 309 309 308 310 309 307 309 308 309 311 318 327 320 322 339 337 338 339 338 339 339 341 340 342 341 342 341 341 341 340 339 339 338 338 336 335 335 335 335 335 335 335 336 336 334 332 329 328 329 331 332 332 333 335 336 336 336 334 332 332 332 334 336 333 331 333 334 334 332 331 330 332 333 334 335 335 335 334 334 333 333 333 331 331 330 330 330 331 330 329 329 330 330
309 309 310 311 309 311 310 309 308 308 310 308 308 309 315 323 322 331 340 337 338 337 338 339 339 341 341 342 341 341 341 340 341 339 339 338 336 334 333 335 334 334 335 334 335 333 333 334 332 330 328 328 330 331 330 329 331 334 335 334 334 334 334 332 332 334 334 331 332 333 334 333 333 333 332 332 333 334 335 335 334 334 333 332 332 332 332 331 330 330 330 331 330 329 329 330 330
309 308 310 311 310 311 310 308 306 307 310 307 309 308 311 319 319 331 339 336 338 338 339 339 340 341 341 342 341 340 340 339 340 339 338 336 333 331 332 335 334 334 334 334 335 331 328 333 333 330 328 328 331 332 331 329 332 334 333 332 332 334 334 332 333 334 333 332 333 333 333 334 334 334 334 334 333 333 334 334 334 334 333 332 332 332 332 332 331 330 331 331 331 330 331 331 331
309 308 309 310 309 310 309 308 307 309 308 306 311 308 310 314 311 326 339 337 338 339 338 338 340 341 341 342 341 339 339 338 339 337 337 335 333 332 333 335 334 334 335 335 335 331 329 332 334 334 333 330 329 330 331 332 334 334 334 333 334 336 335 334 335 334 334 334 333 333 334 334 334 334 334 335 334 333 334 333 333 333 332 332 333 333 333 332 331 331 331 331 331 331 332 331 332
309 309 310 310 308 309 312 310 308 311 308 306 310 308 311 312 309 327 339 336 338 338 338 339 339 340 340 341 340 339 338 337 337 336 335 335 333 332 333 334 335 335 335 334 334 332 333 334 333 336 337 334 331 330 333 335 336 335 336 336 336 337 336 336 336 335 334 334 332 332 333 334 334 333 333 334 334 334 333 332 331 331 331 332 333 333 332 332 331 331 331 331 331 331 331 331 330
309 309 312 311 310 311 312 311 309 310 309 308 309 309 312 313 316 333 339 336 338 337 338 338 339 340 339 340 340 338 337 336 336 335 335 335 333 332 333 334 335 335 334 334 334 334 336 334 333 337 338 336 333 333 335 337 338 338 337 337 338 337 336 336 335 335 334 333 333 332 333 334 334 333 332 333 333 332 331 332 330 330 331 331 332 333 333 333 332 331 331 331 330 331 330 329 330
311 311 313 312 312 312 312 312 310 307 308 310 309 310 313 313 322 338 339 337 338 336 338 337 338 340 338 339 338 337 337 336 335 336 334 333 333 333 334 334 335 335 334 335 335 336 337 335 334 338 338 337 335 335 337 338 339 339 338 337 337 336 336 335 334 335 333 332 333 332 332 333 333 333 331 331 331 330 331 331 330 330 331 331 332 333 333 333 332 332 332 331 329 330 329 330 332
311 313 313 312 312 312 313 313 311 309 310 311 309 310 310 313 327 340 339 337 338 337 337 337 338 339 339 338 338 337 337 336 336 336 335 333 333 334 334 335 335 335 335 335 336 337 338 338 337 338 339 339 338 338 338 339 339 338 338 336 335 335 334 333 332 333 332 332 331 331 332 332 332 332 331 330 330 330 330 330 329 330 331 332 332 332 333 333 332 332 332 331 329 329 330 331 332
312 312 312 312 311 312 313 313 311 310 312 313 311 312 309 315 331 341 340 338 338 337 338 338 338 338 339 338 338 338 337 336 336 336 335 334 333 334 334 335 335 335 334 335 336 336 338 339 339 339 339 340 340 340 340 339 337 336 335 334 334 333 332 331 331 331 331 331 331 331 332 332 332 331 330 330 330 330 330 329 330 330 331 332 332 332 332 332 332 332 332 331 330 330 330 331 332
312 312 312 312 312 312 313 313 310 310 314 313 311 312 309 316 333 341 340 340 339 338 339 338 338 338 338 338 337 338 337 336 336 336 335 334 333 333 334 334 334 333 333 333 335 336 338 339 340 340 340 341 341 341 339 337 335 334 333 333 333 333 332 331 329 329 330 330 331 331 332 332 331 331 330 330 330 330 330 330 330 331 331 331 332 332 332 332 332 332 331 331 331 331 330 330 330
313 312 312 312 312 313 313 312 310 310 313 313 310 310 310 316 332 341 340 342 340 338 339 339 338 338 337 338 337 337 336 334 333 335 334 333 333 333 333 333 333 332 332 332 334 336 338 339 340 340 340 340 340 340 338 336 334 332 333 333 332 331 330 329 327 327 329 329 330 331 331 331 330 331 330 329 330 330 330 331 330 330 330 331 331 331 331 332 332 332 331 330 331 331 330 329 328
315 312 313 314 312 312 313 313 312 311 312 313 310 310 316 320 330 340 341 342 341 339 339 339 338 339 337 337 337 337 336 333 332 334 334 334 333 333 334 333 332 333 333 333 333 335 337 338 339 340 340 339 339 339 337 335 333 332 332 331 330 328 327 327 327 327 328 329 329 329 329 329 329 330 330 329 329 329 330 330 329 329 329 329 330 330 330 331 331 331 330 330 331 330 329 328 327
315 313 313 314 312 311 311 314 316 314 313 314 312 313 322 326 331 338 337 337 340 339 339 339 337 338 338 337 337 336 336 334 333 333 333 334 334 333 334 333 332 332 333 333 332 333 335 336 338 339 339 339 338 339 337 334 332 332 330 329 327 326 326 326 326 326 326 326 326 326 327 327 327 327 328 328 328 327 327 327 328 328 328 329 329 329 330 330 330 330 330 330 330 330 329 328 326
315 316 314 313 314 312 311 315 317 317 316 317 316 314 320 326 333 339 334 331 336 338 338 340 338 337 337 337 337 336 336 335 333 333 333 334 334 333 333 333 332 331 332 333 332 332 333 334 336 337 338 339 338 338 336 333 332 330 328 327 327 326 326 326 326 325 324 323 323 322 322 324 324 325 325 327 327 325 324 324 325 326 327 328 329 329 329 329 329 330 330 330 329 330 329 328 327
315 317 316 315 315 315 315 317 317 316 315 316 315 312 315 318 324 334 336 333 335 336 337 339 338 337 336 336 337 336 336 335 333 332 333 334 334 333 333 333 332 331 331 332 331 330 330 331 333 335 336 337 338 337 334 332 331 329 327 327 327 326 326 325 325 323 322 322 321 320 318 319 322 323 323 325 325 323 321 322 322 323 325 327 328 329 329 329 329 329 329 329 329 329 328 328 328
313 318 318 315 315 317 319 318 316 312 313 316 315 312 312 314 316 323 330 334 335 334 335 337 336 337 336 335 336 335 335 333 331 330 331 333 334 333 333 332 332 332 331 330 330 329 329 329 331 332 334 336 337 335 332 330 329 327 326 325 325 325 325 324 323 322 322 321 320 318 317 319 321 322 321 323 322 321 321 322 323 323 325 325 326 327 328 328 329 329 329 329 329 328 328 328 328
314 319 317 312 312 316 320 319 315 314 315 316 316 314 312 313 314 315 319 328 334 333 334 334 334 336 336 336 335 334 334 332 332 330 330 332 333 333 333 333 332 331 330 330 329 329 329 329 330 331 333 335 335 332 330 330 328 326 325 324 324 324 323 322 322 322 322 321 320 319 319 320 321 321 321 322 322 321 321 323 324 324 324 324 325 326 327 327 328 328 328 328 328 328 328 328 327
315 315 313 311 313 317 319 318 315 317 316 314 316 316 313 313 315 314 315 323 329 330 332 333 333 334 335 335 334 332 332 332 332 331 330 332 333 333 333 333 331 330 330 329 329 329 329 329 330 331 332 333 332 330 330 329 328 326 325 325 324 323 322 322 321 322 321 320 319 319 320 320 320 320 321 321 321 321 321 323 324 324 323 323 324 324 324 325 326 327 328 328 328 328 327 327 327
313 311 311 311 313 316 318 316 315 318 315 312 316 317 314 313 315 315 316 319 321 324 325 326 329 332 333 334 334 333 331 331 331 329 330 332 332 332 332 332 331 330 330 329 330 329 329 328 329 329 329 330 330 329 329 329 327 326 325 324 323 322 321 321 321 320 320 319 319 319 320 319 319 319 320 320 321 321 320 321 324 324 323 323 323 322 322 322 324 326 327 327 327 327 326 326 327
311 311 313 312 314 317 317 316 316 315 314 314 316 318 316 313 314 316 316 317 316 318 319 319 320 325 330 333 332 332 331 330 330 328 329 332 331 331 331 332 332 330 330 329 329 328 328 328 327 326 327 328 329 329 328 327 327 326 324 323 323 322 321 321 320 319 319 319 318 319 319 319 319 319 319 320 321 321 320 321 323 324 323 323 322 322 322 321 321 323 324 325 325 325 325 325 325
310 314 314 312 314 316 315 315 316 314 314 315 315 317 317 313 314 316 317 317 315 316 318 318 317 318 322 329 331 330 330 329 329 328 328 329 330 330 332 333 332 330 330 329 329 328 327 326 325 325 325 325 326 326 327 327 326 325 324 323 323 322 321 319 318 318 319 319 318 318 319 318 318 318 319 320 321 321 320 321 322 323 322 322 321 320 319 320 321 321 321 322 323 324 324 325 325
310 314 314 312 313 314 314 315 315 315 315 315 315 316 316 313 315 316 317 319 319 319 320 320 320 318 317 321 328 329 329 329 328 328 328 328 329 331 333 334 333 332 331 330 329 327 326 325 324 324 322 322 323 325 325 326 325 324 323 323 323 321 319 318 317 318 319 319 318 318 318 317 317 318 319 321 320 320 320 320 321 321 320 320 318 317 318 320 320 319 318 318 319 320 321 322 323
311 313 313 313 313 313 314 314 313 314 316 315 314 315 315 314 316 317 318 320 321 323 322 322 322 320 317 319 325 328 328 328 328 327 327 328 329 331 333 333 333 333 332 330 329 327 326 324 322 321 320 321 323 323 323 323 323 324 323 323 323 320 318 316 314 315 317 318 318 317 317 316 317 318 319 318 317 315 315 315 316 317 316 316 315 316 319 320 318 317 317 316 316 317 317 318 319
310 311 312 312 313 314 313 314 314 315 316 316 314 314 316 315 316 317 317 319 322 323 323 323 323 321 321 323 325 326 326 325 325 325 325 326 328 330 332 333 333 332 332 332 329 325 323 321 320 321 322 323 323 323 323 323 323 323 323 323 321 319 318 314 312 312 311 314 316 316 316 315 315 316 316 314 313 313 311 310 311 311 310 310 312 317 319 318 316 316 316 315 314 314 314 314 314
309 308 310 312 313 315 314 312 315 315 316 317 314 314 315 314 315 313 315 321 324 323 323 324 324 324 324 325 325 324 324 324 324 324 324 325 326 327 327 329 329 330 332 330 325 321 321 322 323 325 325 324 324 323 323 323 323 323 322 322 320 319 316 312 312 311 309 313 317 317 316 314 313 314 314 313 313 313 311 309 309 308 306 305 308 314 317 316 315 315 314 313 313 312 312 311 310
310 308 311 310 311 317 317 312 312 314 316 316 313 315 315 315 315 314 317 324 325 323 324 325 325 325 326 326 325 325 325 325 326 325 324 324 325 324 324 325 325 327 328 324 322 324 326 326 326 326 325 324 324 324 324 323 324 324 322 321 320 319 315 311 312 311 310 314 317 317 316 313 311 312 314 314 314 313 312 309 308 307 306 304 304 309 313 314 314 313 312 311 311 310 308 307 306
310 310 311 310 310 315 316 314 313 313 315 315 312 315 317 316 316 316 319 326 326 325 324 325 325 326 326 326 326 326 326 326 325 325 325 325 324 322 323 323 322 324 324 322 323 326 327 327 327 326 326 325 324 323 323 324 324 323 321 321 320 320 316 312 311 310 311 315 316 316 316 313 310 310 311 313 314 313 312 310 309 308 307 305 303 304 306 308 309 309 309 310 310 308 306 305 305
308 309 310 310 311 314 314 314 315 314 313 314 312 313 315 315 316 317 318 321 324 326 325 325 326 326 326 325 325 326 326 326 325 324 327 326 322 320 322 322 321 323 324 322 323 326 326 327 326 325 325 326 324 323 323 323 325 323 320 319 320 321 316 312 312 310 312 315 314 314 314 312 311 310 308 309 311 312 311 310 310 310 310 308 306 303 303 303 304 306 307 308 309 308 307 306 306
308 308 308 310 313 314 314 314 315 315 313 313 313 314 315 315 315 316 316 316 319 325 326 325 325 325 325 324 324 324 324 325 324 323 324 324 321 320 322 323 322 323 324 323 323 325 327 327 326 323 323 323 323 322 322 323 324 322 320 320 320 320 316 312 313 312 313 315 312 308 309 310 311 310 308 307 308 309 310 311 311 311 311 311 310 307 305 304 304 304 305 307 308 308 308 308 307
310 311 311 312 311 311 312 313 312 313 313 313 314 315 315 315 313 314 317 316 315 321 325 325 323 323 322 321 322 322 322 323 323 322 321 320 319 319 321 322 322 322 323 323 323 324 325 326 327 326 323 324 323 322 322 322 322 321 321 320 319 320 317 314 314 313 314 316 313 307 306 310 312 312 309 307 306 307 308 309 311 311 312 312 312 312 309 307 306 305 305 305 305 307 308 308 308
310 312 312 312 313 312 312 312 310 311 313 313 313 315 315 315 313 313 316 316 315 317 323 324 322 322 321 320 320 321 321 321 321 320 320 320 320 320 320 322 322 322 323 323 322 323 324 325 326 326 325 325 324 323 322 321 321 320 321 320 319 319 319 316 315 314 315 317 316 309 306 310 314 313 311 309 307 307 307 307 309 310 311 312 313 313 312 310 308 307 307 306 305 305 305 306 307
Wind_Speed
6 6 6 6 6 6 4 1 1 1 1 2 2 1 2 1 1 2 3 4 1 2 2 3 4 3 3 3 4 5 5 2 2 1 1 3 8 17 17 21 29 26 24 23 24 25 25 25 24 25 26 26 26 26 26 25 26 27 27 25 24 24 24 24 24 24 24 24 23 22 21 20 19 19 18 18 18 18 19 19 20 20 19 17 16 15 14 14 14 14 14 14 14 14 13 13 13
6 6 5 6 6 4 2 1 1 1 1 2 3 2 1 2 2 3 5 6 2 3 2 6 8 7 5 5 5 5 5 6 4 2 3 7 12 16 16 21 26 24 23 22 23 25 25 26 24 25 26 26 27 26 26 25 26 26 26 26 25 25 24 24 24 24 24 23 21 20 19 19 18 18 17 17 17 17 18 18 18 18 18 17 16 16 15 15 14 14 14 15 15 14 14 13 13
7 6 7 8 4 0 1 0 1 1 3 3 3 2 2 2 4 4 3 4 3 4 2 3 6 6 4 3 4 4 3 4 5 4 5 10 12 14 16 19 22 22 23 21 23 24 24 26 25 25 25 26 27 26 26 25 25 25 25 25 26 26 25 25 24 23 23 21 20 19 18 18 18 18 17 17 17 17 18 18 18 17 16 16 16 17 16 16 15 14 14 14 14 14 14 13 14
6 6 9 7 2 0 2 1 1 2 4 3 2 1 3 2 3 4 1 3 2 4 2 1 4 4 3 5 4 3 4 4 5 5 6 8 10 14 18 19 21 21 22 21 22 23 23 26 26 26 25 26 27 27 27 26 25 24 24 24 24 24 25 24 23 21 20 19 18 18 18 18 18 18 17 17 17 17 18 17 18 18 17 16 16 17 17 16 15 14 14 14 14 14 14 14 15
6 6 7 4 1 1 2 1 1 2 4 2 0 2 4 3 1 3 3 4 5 4 4 3 4 2 4 6 2 1 4 4 6 6 6 8 12 16 18 19 20 20 21 21 21 22 22 26 26 26 26 26 27 27 27 26 25 24 24 23 23 22 22 22 20 19 19 18 18 17 17 17 17 17 17 17 17 18 18 17 17 17 17 16 16 16 17 16 15 15 14 14 14 14 14 13 13
7 6 4 2 0 0 1 2 2 4 3 2 1 2 4 3 2 5 5 5 5 5 4 3 4 5 5 4 2 2 2 1 5 6 7 12 16 18 19 19 19 20 21 20 21 22 23 25 26 27 27 26 25 26 26 26 25 25 24 23 22 22 21 20 20 19 18 17 17 16 15 16 16 16 17 17 18 18 17 16 15 15 16 16 15 15 16 16 15 15 14 14 14 14 14 13 12
8 5 2 2 1 1 2 3 4 5 2 3 3 2 1 2 3 5 6 3 1 5 3 4 7 8 5 2 3 3 4 2 3 7 10 15 18 18 18 19 20 20 20 20 21 21 23 24 25 27 26 25 24 24 25 25 25 24 23 23 22 22 21 20 20 18 17 17 16 16 15 15 15 16 17 16 17 16 15 15 13 14 15 16 15 14 13 15 15 14 14 14 14 14 14 13 12
6 2 1 2 2 1 2 2 3 3 1 2 4 5 6 5 3 5 5 1 1 3 5 8 8 6 3 2 3 3 5 2 6 12 14 17 19 19 18 19 20 20 19 20 21 21 23 24 25 26 26 25 23 22 23 23 24 23 23 22 21 21 20 20 19 18 17 16 15 15 14 14 14 14 14 14 15 15 15 14 12 13 14 14 14 14 12 13 13 12 12 13 13 13 13 12 10
3 0 1 1 2 0 1 2 3 1 2 4 4 7 9 6 4 5 6 4 2 4 8 9 4 4 6 5 4 2 3 6 12 16 16 17 19 19 18 19 20 20 20 20 20 21 22 23 24 24 25 24 22 21 21 22 22 22 21 21 20 19 18 18 18 17 17 16 15 14 12 13 13 13 13 13 14 14 14 12 11 12 12 13 13 13 11 10 11 12 12 12 11 12 12 11 10
1 1 1 1 2 2 2 2 1 1 3 4 5 8 8 5 4 6 7 6 5 7 7 5 3 7 11 7 4 1 3 9 14 16 16 17 18 18 18 18 18 20 20 20 20 21 22 22 21 22 23 23 23 22 21 21 21 21 20 20 19 18 17 17 16 15 15 14 14 13 12 12 12 12 12 12 13 13 12 11 10 10 10 11 11 10 8 8 10 12 12 11 11 11 11 10 10
1 1 1 1 2 3 3 3 1 1 3 3 4 6 6 5 3 5 6 4 6 8 8 5 7 12 11 6 2 2 6 11 15 16 15 17 17 17 18 16 17 19 21 21 22 22 22 22 21 21 22 22 23 22 20 19 20 20 19 19 18 17 16 16 15 15 14 13 13 13 12 12 12 11 11 12 12 12 11 10 9 9 9 9 8 7 7 8 10 10 11 11 10 11 10 9 8
1 1 1 2 3 3 2 1 1 2 4 3 2 4 4 4 2 2 5 5 6 10 8 4 8 11 9 6 2 4 8 11 13 15 15 17 18 18 17 17 17 19 21 21 22 23 22 23 22 22 22 21 21 21 19 18 19 18 17 17 16 16 16 15 15 15 14 13 12 12 12 11 11 11 11 12 12 11 11 10 9 9 8 7 6 6 7 9 10 10 10 10 9 9 9 8 7
1 2 2 2 1 1 1 0 1 2 2 1 1 6 6 2 3 1 5 7 7 9 6 3 9 8 6 6 3 6 9 10 13 15 16 17 18 18 17 17 18 19 20 19 21 22 21 22 22 23 24 23 22 21 21 20 19 17 16 15 14 14 15 15 14 14 13 13 12 12 11 11 10 10 11 12 12 11 10 9 9 8 8 7 7 7 8 10 10 10 9 8 8 8 8 9 8
2 1 2 2 0 1 1 1 1 2 1 2 0 5 5 3 4 2 7 9 5 3 4 5 7 5 6 7 4 6 9 12 15 16 17 17 17 17 16 17 18 19 20 21 22 21 20 21 22 23 24 22 22 22 21 21 19 18 16 15 13 14 15 15 14 14 14 13 12 11 11 10 10 10 11 11 11 10 10 9 9 9 8 8 8 9 10 10 10 10 10 9 8 8 8 9 10
2 1 1 1 1 1 2 1 1 2 3 2 1 3 3 4 3 2 5 5 4 2 3 5 1 1 6 9 6 9 13 16 17 17 18 17 15 15 16 18 19 19 19 22 22 21 19 20 20 21 21 21 20 20 20 19 18 18 16 14 13 13 15 15 14 14 14 13 12 11 10 10 9 9 10 10 10 9 9 9 9 9 9 8 8 9 10 10 10 10 9 9 9 8 8 8 10
1 2 1 2 2 2 3 2 2 2 2 1 1 3 2 5 3 2 3 1 6 2 1 2 3 3 5 6 6 15 18 18 18 19 18 17 15 16 17 18 18 17 17 18 19 19 18 19 19 18 19 20 19 19 19 18 17 17 15 15 13 13 14 15 14 14 14 13 12 11 10 10 9 9 9 9 9 9 9 9 9 9 9 8 8 9 10 10 9 8 7 7 8 8 8 8 9
1 1 2 2 3 3 4 4 3 2 1 1 2 5 4 5 4 3 3 5 8 4 3 3 3 3 2 3 11 21 21 19 20 20 19 18 17 17 17 17 17 17 16 16 17 18 18 18 18 17 18 19 18 18 18 18 17 16 15 15 14 13 14 14 14 14 14 13 12 11 11 10 10 10 9 9 9 8 9 9 9 8 8 8 7 7 8 9 8 7 6 6 7 7 7 7 8
2 2 2 3 3 3 5 5 4 1 2 2 3 4 3 4 3 4 4 8 7 5 4 4 4 3 4 10 18 23 21 21 21 20 20 19 19 18 17 16 15 16 15 15 15 17 17 16 17 17 18 17 17 17 17 18 17 17 16 15 14 13 13 13 14 14 13 13 12 11 11 10 10 10 9 9 9 8 8 8 7 7 7 7 6 6 7 7 7 6 6 7 7 6 6 6 7
1 2 2 3 3 2 3 3 3 1 2 4 4 1 3 4 3 4 2 4 4 3 4 3 5 6 9 14 19 21 21 21 20 20 20 19 18 18 17 16 15 15 15 14 14 16 16 16 16 17 17 17 17 16 17 18 18 17 16 15 14 13 13 13 14 13 13 12 12 12 11 11 10 10 9 9 9 9 8 7 7 6 6 6 6 5 5 6 6 6 6 7 7 6 5 5 5
2 1 3 3 3 2 3 4 4 3 3 5 4 1 4 3 3 3 2 5 3 3 4 4 5 8 11 15 17 19 20 21 21 21 20 19 17 18 17 17 16 16 15 14 14 15 15 15 16 16 17 17 16 16 17 18 18 17 15 15 14 14 14 14 14 13 12 12 12 12 11 11 11 10 9 9 9 9 8 7 6 6 5 4 5 5 4 4 5 5 5 5 5 5 5 5 5
2 2 2 2 3 3 4 5 5 4 3 3 3 1 1 2 1 2 5 6 3 6 6 6 9 13 15 16 16 18 19 19 21 21 20 19 17 16 15 15 15 15 15 14 14 15 14 14 14 15 15 15 15 15 17 18 16 16 15 15 15 15 13 14 14 12 12 11 10 10 10 11 11 10 10 9 9 8 8 8 6 6 5 4 4 4 3 3 3 3 3 4 3 3 5 6 5
2 3 1 3 4 3 4 3 3 3 2 2 2 3 1 1 0 4 7 5 2 1 4 6 9 16 18 18 17 17 17 18 20 21 21 20 18 16 14 14 14 14 15 14 14 14 14 14 13 14 13 12 13 14 15 16 14 14 14 15 15 14 12 12 11 10 10 10 10 9 10 10 10 10 10 9 8 7 7 7 6 6 5 4 4 4 3 3 3 2 2 2 2 3 4 6 6
3 2 1 3 4 4 3 1 2 3 2 3 1 2 1 2 1 3 5 5 2 4 5 6 9 15 18 18 17 17 18 17 19 21 21 20 20 17 15 15 15 14 15 15 15 14 14 13 12 12 11 10 11 11 12 12 12 12 13 13 12 11 10 9 9 9 8 9 9 9 9 10 10 10 10 9 8 7 6 6 5 5 5 5 4 4 3 3 3 2 2 2 3 3 4 6 6
4 3 2 4 5 6 4 2 2 2 4 3 1 2 2 3 1 2 4 4 4 6 4 8 12 15 17 17 16 17 18 18 18 20 19 18 18 16 15 16 16 15 14 14 13 13 13 13 11 10 9 9 9 9 9 10 12 12 10 9 9 9 10 11 11 10 9 9 8 8 8 9 10 10 9 8 8 8 7 6 5 5 5 5 5 4 4 4 3 3 3 3 3 4 5 6 6
5 5 2 2 4 6 4 3 4 4 5 2 1 4 2 3 3 3 3 2 4 3 5 11 13 15 16 16 16 15 15 16 18 18 17 15 15 14 14 15 16 16 16 14 13 13 12 10 10 10 10 10 8 7 8 10 12 13 13 11 10 11 12 12 11 11 11 9 7 7 7 9 10 9 9 9 8 8 7 7 6 6 5 5 4 4 4 4 3 3 3 3 4 5 6 7 7
5 5 2 2 3 4 2 4 5 4 3 2 3 4 1 2 3 4 2 1 1 3 8 11 13 15 15 15 15 14 14 15 16 17 16 14 14 14 14 14 15 16 16 15 15 14 11 10 11 11 12 11 8 7 7 10 12 13 16 15 13 13 14 12 10 11 10 8 8 9 8 9 10 10 9 8 7 6 6 7 7 6 6 5 4 4 4 4 3 3 3 3 4 5 6 7 6
3 4 3 4 3 3 2 4 3 1 3 5 5 2 3 2 2 3 2 3 5 7 9 10 12 13 13 13 13 12 13 13 14 15 14 13 14 15 15 14 15 16 15 15 16 13 11 11 12 11 11 10 7 7 8 11 12 11 12 12 12 13 13 11 10 10 8 8 11 11 9 10 11 10 9 8 7 7 7 7 7 6 6 5 5 5 5 5 4 3 3 3 4 5 5 6 6
2 3 2 3 3 4 4 5 4 2 3 6 5 0 4 2 3 2 5 7 8 8 9 10 10 11 12 12 11 10 10 12 14 14 13 13 14 14 15 15 15 15 14 13 12 10 9 8 11 11 10 10 9 10 12 13 13 11 8 8 9 10 10 10 11 11 10 10 11 11 10 11 11 10 9 9 9 8 6 6 6 6 6 5 5 5 6 6 6 5 4 4 4 5 6 5 5
2 2 2 2 3 4 5 3 2 3 2 5 6 2 3 3 3 4 7 9 9 8 9 9 9 10 11 11 9 8 8 11 13 13 12 9 8 8 10 14 15 14 13 12 11 12 13 10 10 11 12 13 12 13 15 14 14 13 9 8 6 6 7 10 12 12 11 11 11 11 11 12 12 11 10 11 11 9 7 6 6 5 5 5 5 5 6 7 7 6 4 4 4 5 6 5 4
2 2 2 2 2 3 3 0 1 4 3 6 7 4 3 6 4 5 8 10 10 9 9 9 9 9 10 10 8 7 7 9 9 9 9 9 8 8 8 12 15 14 13 12 13 17 20 15 12 13 16 16 13 13 15 13 14 13 9 8 6 6 7 10 12 11 10 11 10 9 10 12 13 12 12 12 12 11 8 7 7 6 6 5 5 4 5 6 7 6 5 4 4 5 5 5 4
1 2 1 1 2 3 1 1 3 4 2 5 7 5 4 5 4 7 9 11 11 10 10 10 10 10 11 10 8 7 6 7 8 9 9 10 13 13 10 12 15 16 14 14 16 18 19 19 18 17 18 17 16 14 14 14 14 12 9 7 6 6 7 8 9 8 8 9 8 6 7 10 11 12 13 13 12 12 9 7 6 7 6 5 4 3 4 5 6 6 6 5 4 5 5 5 5
1 2 2 0 2 2 2 2 5 5 1 2 7 4 4 4 3 8 10 11 12 10 10 11 11 12 12 10 8 7 6 7 9 10 9 11 12 12 12 14 16 16 16 17 18 18 18 21 21 17 16 17 17 13 13 15 14 12 8 5 6 6 5 5 4 3 4 5 4 4 4 5 6 8 10 11 12 11 9 7 7 7 6 5 4 3 4 5 5 5 6 6 5 5 6 6 5
1 1 2 1 2 2 2 2 4 4 1 2 5 3 2 1 2 9 11 12 12 9 10 11 10 11 12 10 8 7 6 7 8 9 10 10 9 11 14 15 16 18 20 19 20 21 20 22 21 16 14 15 14 11 12 14 12 9 6 4 4 3 2 1 2 2 2 3 2 2 1 2 3 3 5 7 9 9 7 6 7 7 5 4 4 4 4 4 4 4 5 6 5 4 5 6 6
1 1 1 1 2 2 2 1 0 1 2 4 4 4 4 1 2 10 12 12 13 10 10 10 9 9 10 10 10 9 8 7 8 10 11 11 11 13 15 15 16 19 21 20 21 22 20 21 22 17 13 12 11 11 13 12 9 8 6 5 5 3 1 1 2 2 2 2 1 1 0 1 1 1 2 4 6 6 5 4 5 6 5 4 4 4 4 4 4 4 5 5 4 4 4 6 7
4 2 2 1 2 2 3 2 1 1 2 4 4 6 9 2 3 10 12 11 12 10 9 9 8 9 9 10 10 10 10 9 10 11 12 13 14 15 16 16 17 20 21 21 19 17 16 16 18 17 14 11 12 13 13 11 9 8 8 6 6 4 2 0 1 1 1 1 0 1 1 1 1 1 0 3 4 3 3 4 5 5 4 3 3 4 3 4 3 4 5 4 4 5 5 7 8
5 2 1 2 2 3 4 2 1 1 3 5 7 8 10 6 7 11 12 11 11 9 8 8 8 9 9 10 10 10 11 10 11 13 12 13 15 16 17 16 19 21 20 19 16 14 17 15 13 15 14 13 15 16 14 12 11 10 8 7 5 4 1 1 2 1 1 2 1 2 2 3 3 2 2 2 3 2 2 5 5 4 4 3 3 3 3 4 3 4 5 4 4 6 6 7 8
4 3 2 2 2 4 4 2 1 1 3 4 5 8 8 5 7 10 11 11 11 10 10 9 8 8 9 10 11 11 10 8 9 11 11 11 13 16 17 16 18 18 15 16 15 15 19 17 14 16 16 16 17 17 16 15 13 11 8 6 5 3 3 3 3 2 2 2 3 3 2 3 4 4 3 2 1 1 2 3 3 4 5 4 3 3 3 3 3 4 5 5 5 7 8 8 11
2 2 2 2 3 4 3 0 2 2 3 1 1 5 5 1 3 7 10 11 11 11 10 9 9 8 8 10 10 10 8 5 6 8 9 10 12 15 17 16 16 17 14 15 17 19 20 17 15 17 18 17 17 17 17 14 12 10 8 7 7 7 7 6 6 5 4 4 4 4 4 4 6 5 4 3 2 1 1 1 2 3 4 4 3 4 3 3 3 4 6 6 6 8 9 11 16
2 1 1 2 2 4 2 1 2 1 3 2 1 3 1 3 1 4 6 9 8 8 9 8 9 9 8 9 9 9 8 5 6 7 8 10 12 14 16 15 16 17 16 16 18 19 20 18 16 17 18 16 15 16 15 12 11 10 8 9 11 10 10 10 9 8 7 7 6 6 6 6 6 5 5 5 4 3 2 1 1 3 4 3 2 2 2 2 3 4 6 7 6 8 8 10 14
2 2 2 2 1 2 1 2 1 1 1 1 4 3 2 3 3 2 1 3 3 3 6 6 7 8 9 8 8 9 10 8 7 7 7 9 11 13 15 15 16 17 18 18 18 18 19 18 17 17 17 15 14 15 14 12 11 11 10 12 12 12 12 11 11 10 9 9 8 7 6 6 6 5 5 6 5 4 3 2 1 3 3 2 1 1 1 2 3 3 5 6 6 8 7 7 9
2 3 5 3 2 3 3 1 1 0 1 2 4 3 1 2 4 4 1 2 3 3 4 5 6 8 9 8 8 10 10 9 9 8 7 9 11 13 14 16 17 17 19 19 18 18 18 18 17 17 17 16 15 15 15 14 14 15 16 16 14 13 13 12 11 10 9 8 7 6 5 5 6 5 5 5 5 5 4 3 3 4 4 3 1 1 1 2 3 3 3 4 5 6 6 6 6
2 5 8 6 3 3 3 1 0 2 2 2 1 2 3 2 3 7 3 2 3 3 4 7 7 9 10 9 10 10 9 9 8 7 7 8 10 11 12 15 16 16 18 20 18 17 16 17 18 18 17 16 16 17 16 15 17 18 19 18 15 13 12 10 10 10 9 8 6 4 4 4 5 5 5 5 5 4 3 3 4 4 4 3 2 1 1 2 3 3 3 4 5 5 5 6 5
2 4 8 7 3 2 2 2 1 2 1 2 2 1 2 2 2 4 4 7 8 4 6 9 8 10 12 11 11 10 9 9 7 7 8 9 10 11 12 13 13 13 16 18 17 16 17 18 19 19 18 18 18 19 18 17 18 18 17 16 15 14 13 12 11 10 9 7 5 5 5 6 5 5 5 5 5 3 3 3 3 3 3 2 2 1 1 2 2 3 4 4 4 5 6 6 6
2 2 6 8 5 4 3 2 1 0 1 1 1 1 2 3 1 0 2 7 9 8 9 10 9 10 12 11 12 12 12 11 9 8 9 9 10 11 11 12 13 12 14 16 17 17 17 18 20 20 19 19 19 20 20 19 19 18 16 14 14 13 13 14 12 10 9 7 6 7 7 7 6 5 5 4 4 3 3 3 2 3 4 5 5 5 5 4 3 3 3 3 3 4 5 6 7
0 2 5 6 4 3 2 2 2 1 1 3 1 2 1 3 1 1 2 6 8 10 11 11 10 11 11 10 11 12 12 12 11 10 9 10 10 11 10 11 14 14 13 15 16 17 18 18 19 20 20 20 20 21 20 19 17 16 15 15 14 13 12 13 13 11 9 8 7 8 7 7 6 5 5 4 3 3 4 3 2 3 4 6 7 7 7 6 5 3 3 3 2 4 5 5 8
2 5 6 5 4 3 2 1 2 1 2 3 2 4 1 3 2 1 2 3 4 5 6 8 8 9 11 10 9 11 10 10 10 9 9 10 10 11 10 10 12 14 14 15 16 16 16 16 17 19 19 20 21 21 20 19 16 14 14 14 13 13 13 13 13 11 10 9 8 8 7 6 6 5 4 4 3 3 5 4 3 3 4 4 5 6 6 6 5 4 4 3 4 4 4 5 7
5 5 5 5 3 2 2 2 1 1 3 1 2 4 2 3 2 1 2 1 1 3 3 3 4 7 9 9 8 9 9 8 9 8 8 9 10 10 10 10 11 13 13 13 14 15 15 16 17 18 18 19 21 21 19 18 15 14 14 12 11 13 14 14 14 13 12 10 9 8 7 6 5 5 4 4 3 3 5 5 4 3 3 3 3 4 4 4 5 6 7 7 6 6 6 7 9
3 2 3 4 1 1 1 1 0 3 3 2 2 3 2 3 2 1 1 1 2 4 5 6 5 5 6 7 8 8 8 8 8 8 8 8 8 9 10 10 11 13 14 13 14 16 16 16 17 18 17 18 19 19 17 16 16 15 14 11 11 12 13 13 13 13 12 10 9 8 6 5 5 5 5 4 4 4 4 4 3 2 2 3 2 2 3 4 5 8 10 10 10 9 10 11 13
1 2 3 3 1 1 2 1 1 3 1 2 1 1 1 2 1 1 4 5 5 4 6 8 9 8 5 5 7 7 7 8 8 7 7 8 8 9 11 11 12 14 15 16 16 16 16 16 17 17 16 16 17 17 16 16 17 16 14 12 12 12 12 12 13 13 12 10 9 9 6 5 5 6 6 6 5 5 4 3 2 2 2 2 2 3 4 5 7 9 11 11 11 11 12 13 15
4 4 4 4 3 2 3 2 1 2 1 2 1 1 1 1 0 2 5 7 7 6 6 7 8 8 5 3 4 5 5 5 5 4 4 4 5 7 9 9 11 13 15 17 15 13 14 15 16 17 14 12 15 17 17 18 18 17 16 14 13 12 12 12 12 12 12 10 9 10 8 5 6 7 7 6 6 5 3 3 3 3 2 2 3 4 5 6 7 9 9 9 10 11 12 13 14
3 1 2 4 4 3 3 3 3 3 1 2 1 2 2 3 1 3 4 5 6 6 6 5 3 2 1 3 5 6 6 5 5 6 6 5 4 3 5 7 8 11 13 13 11 16 21 23 22 16 7 10 15 17 18 18 17 17 17 17 15 14 12 12 13 13 11 10 8 10 10 7 7 8 7 6 6 4 4 4 5 5 5 5 5 6 6 7 7 7 7 8 10 11 11 12 13
1 1 2 2 3 3 1 0 1 1 1 1 1 1 1 1 0 2 3 3 5 6 6 5 5 5 6 7 8 8 7 7 7 6 6 7 8 7 5 3 3 8 8 10 22 29 26 20 14 7 13 17 17 18 19 18 18 19 18 18 16 15 13 13 14 13 13 11 8 8 9 7 8 8 8 6 5 4 4 5 6 6 7 7 7 7 7 7 7 6 7 9 10 10 10 11 12
3 2 4 1 0 3 3 2 2 1 2 2 1 1 1 1 2 2 2 2 4 5 5 5 5 6 8 8 8 9 9 8 7 7 6 5 6 12 11 5 8 11 1 20 28 20 13 13 14 16 21 22 20 21 21 21 21 20 18 18 17 16 14 14 15 13 14 13 9 8 7 7 8 8 8 7 5 4 4 5 6 6 7 8 8 7 6 6 5 6 8 9 10 10 9 10 11
3 3 5 4 2 2 2 2 2 0 3 2 1 0 1 2 2 3 3 4 5 5 4 5 5 6 8 8 8 9 10 10 9 9 9 8 6 9 13 4 13 11 5 23 20 11 14 18 20 22 24 24 24 23 23 23 22 19 17 17 18 17 14 14 15 12 11 12 10 8 7 6 7 7 8 7 6 5 5 5 6 6 7 8 8 8 7 6 6 6 8 9 8 9 9 10 11
1 2 4 3 2 2 2 2 2 3 3 2 2 1 1 3 1 2 2 3 4 5 5 5 5 6 6 6 6 7 7 9 10 9 8 5 5 5 11 5 10 5 8 17 16 13 14 16 19 23 24 24 25 24 24 24 21 18 15 16 18 18 15 13 14 10 7 10 11 10 9 7 7 7 7 7 7 6 6 6 6 6 6 7 7 8 8 8 7 8 8 9 8 8 9 11 12
3 3 3 1 1 2 2 1 2 4 4 2 2 2 2 2 2 5 5 5 4 3 4 3 4 4 3 3 3 3 3 4 7 8 8 4 3 4 11 9 7 7 10 14 15 14 14 13 15 18 19 20 22 22 23 24 22 20 17 17 19 18 15 13 13 10 7 9 11 11 10 9 8 8 8 7 7 7 6 6 5 5 5 5 6 6 7 7 7 8 8 9 8 8 9 11 11
2 4 3 1 1 1 1 1 1 1 3 3 3 3 2 2 3 6 7 6 5 1 4 4 2 3 4 4 4 2 3 4 5 5 5 4 3 6 12 13 13 12 12 14 15 14 13 12 12 14 14 15 18 20 22 24 24 22 19 19 20 18 15 14 13 10 8 9 11 11 10 9 10 10 9 8 7 7 7 6 5 4 4 4 4 4 5 5 6 6 6 7 7 8 8 9 9
2 3 3 3 3 3 3 3 1 0 1 2 3 4 2 3 3 5 7 6 5 1 5 5 4 5 5 5 4 4 4 5 6 5 4 5 5 8 11 12 12 12 12 13 13 13 13 11 11 12 12 13 16 18 19 20 21 22 20 19 20 19 17 15 13 11 11 11 12 12 11 11 11 10 9 9 8 7 7 6 5 4 4 3 2 2 3 3 3 3 4 4 5 6 6 6 6
Wind_Direction
149 144 139 144 139 141 148 220 204 125 254 245 239 259 195 160 345 218 352 341 142 40 339 49 64 89 92 90 119 91 50 120 133 110 120 74 137 148 145 150 153 151 151 155 157 155 153 153 148 145 143 143 144 143 142 141 141 142 143 144 146 145 143 143 142 140 138 139 137 137 135 131 128 126 125 122 120 119 118 119 123 125 126 127 124 123 122 121 123 125 124 124 123 123 122 122 121
157 153 150 144 136 155 150 301 229 133 205 239 226 205 96 118 192 180 27 16 115 118 95 75 76 66 45 60 80 79 56 36 37 58 84 115 133 141 147 152 152 151 151 152 156 154 152 155 151 148 146 145 145 143 142 140 141 142 142 143 144 142 141 141 139 138 137 138 138 136 133 130 128 129 129 127 127 124 122 120 122 124 124 125 124 123 124 124 125 127 127 127 127 126 126 125 124
168 164 155 144 120 213 127 49 246 158 192 226 227 182 113 152 182 168 49 30 148 162 134 77 76 45 10 66 38 17 63 54 70 89 106 131 133 141 149 150 151 151 150 151 157 155 153 156 153 149 147 146 144 144 142 138 139 141 141 143 143 142 141 140 138 137 137 137 136 135 133 133 133 134 133 132 131 128 126 123 120 121 121 124 124 124 127 128 128 129 128 130 130 130 132 132 127
174 164 161 156 120 232 149 180 231 176 198 217 247 168 163 173 176 195 218 350 258 201 193 111 82 18 12 73 34 16 82 83 89 108 123 134 137 142 147 149 151 150 149 151 157 156 154 157 153 149 148 146 145 145 143 139 139 139 140 141 143 143 141 138 136 136 136 137 137 137 136 136 137 137 136 135 132 129 127 123 123 125 127 129 127 125 126 129 129 129 129 131 134 135 138 140 132
172 159 170 190 191 163 148 158 120 209 211 185 242 119 163 188 203 243 243 295 285 218 191 159 109 64 72 61 8 9 82 102 105 121 124 126 137 143 146 149 149 147 149 151 157 157 155 157 153 150 149 147 147 147 146 144 142 141 141 141 142 142 140 138 136 137 137 137 138 138 137 137 139 138 137 135 131 126 123 126 129 130 133 132 126 123 124 127 129 129 130 133 136 137 141 145 142
161 150 159 194 93 114 161 182 192 222 222 164 234 118 149 201 243 272 273 291 286 195 178 137 124 126 104 60 56 38 10 160 123 129 129 134 143 144 146 147 146 147 149 152 157 157 156 157 153 150 149 148 148 148 148 146 145 144 143 144 144 142 142 142 141 140 139 139 138 138 138 139 139 137 136 133 130 128 129 136 136 131 131 127 120 119 120 122 127 130 134 137 138 140 142 148 152
162 152 131 150 111 333 201 214 220 224 212 168 260 322 210 243 217 268 293 309 221 166 162 130 132 124 105 92 123 51 351 290 144 137 136 141 144 144 146 147 146 147 150 153 155 156 157 157 151 149 149 147 147 148 149 148 147 146 145 147 148 147 146 146 145 144 142 141 142 141 141 140 140 138 137 134 133 134 138 143 139 131 127 123 119 119 118 120 126 133 140 141 141 144 146 148 151
167 156 330 176 135 342 204 236 240 224 220 210 274 290 283 282 224 264 281 267 175 157 148 146 135 109 111 169 135 50 18 51 129 133 136 143 146 145 146 148 147 147 150 151 153 155 156 155 152 151 148 146 147 148 149 148 148 146 146 148 151 151 148 148 147 145 144 144 145 144 142 141 141 141 141 139 139 141 144 145 138 132 127 123 123 121 119 122 129 137 143 143 145 148 148 150 151
144 82 229 191 154 165 218 245 250 227 260 272 280 266 273 279 238 248 250 240 226 157 144 153 152 118 144 151 118 58 49 108 127 132 139 146 147 147 148 151 148 147 148 148 150 153 154 155 154 152 148 146 146 148 150 149 148 147 145 147 149 149 147 147 145 144 144 146 147 144 144 145 145 146 146 143 144 145 146 145 137 132 128 125 126 123 118 122 134 140 143 144 148 153 153 156 161
99 3 172 156 161 192 232 229 234 214 245 270 278 271 282 285 232 225 239 235 186 149 137 147 143 133 140 137 112 91 135 136 133 134 142 148 149 149 148 151 147 144 146 146 148 152 153 153 153 151 147 146 147 148 152 151 149 147 145 145 147 147 148 148 145 144 145 148 150 148 150 152 152 150 150 147 146 146 147 145 137 133 130 127 130 127 121 126 137 142 145 145 150 161 164 166 173
148 36 168 173 182 202 225 226 231 252 268 283 274 271 291 295 258 221 229 210 162 138 139 145 126 128 127 124 115 116 144 148 140 137 145 149 150 150 146 148 147 144 146 148 150 151 151 151 152 153 150 148 149 149 152 152 151 149 146 144 146 149 150 150 148 148 149 152 152 152 155 157 156 153 153 150 145 146 147 144 139 136 133 130 131 128 129 137 140 143 148 151 154 160 167 170 172
180 133 191 197 202 211 222 238 269 294 283 289 325 344 337 301 307 226 208 171 151 135 142 171 141 133 123 125 135 133 147 154 146 142 147 149 150 150 147 147 148 146 146 149 152 151 150 150 152 158 159 156 155 153 154 155 153 152 148 145 146 150 152 150 149 149 151 152 150 151 154 154 152 152 150 145 141 145 147 144 143 139 135 131 127 121 130 141 143 140 142 150 151 151 161 164 159
187 150 174 187 227 196 164 230 285 302 278 181 9 343 339 320 12 45 159 139 138 136 134 161 149 135 117 129 133 144 154 156 150 147 149 150 152 151 147 148 146 144 144 147 149 149 149 151 156 163 168 167 164 161 160 160 159 157 152 149 148 151 154 151 147 148 148 146 145 147 148 146 144 144 142 139 139 144 147 146 145 143 139 132 118 115 128 137 137 132 127 133 135 138 151 154 150
190 171 188 189 39 142 163 168 251 236 170 114 65 320 335 18 1 77 128 122 110 113 106 115 142 122 115 136 146 169 165 158 153 151 152 149 150 151 147 146 145 143 145 147 147 148 151 156 161 166 168 167 165 163 163 164 163 163 158 155 155 155 156 151 148 146 144 143 143 143 142 139 136 136 134 135 137 143 148 150 150 148 140 127 112 114 127 134 131 127 120 118 121 124 135 144 148
190 147 167 183 131 170 205 204 246 203 151 89 52 312 354 42 351 77 99 109 87 32 93 104 106 41 152 165 178 184 165 156 155 151 152 147 145 148 146 146 145 144 145 147 149 153 156 159 163 164 166 164 163 165 168 169 167 166 165 163 162 160 157 151 147 145 143 143 141 139 135 132 131 131 129 129 130 132 138 144 148 146 135 121 112 115 126 135 135 128 117 109 113 118 126 138 146
154 126 145 202 187 188 196 196 215 182 152 124 19 327 21 55 27 37 2 100 117 65 30 93 350 347 180 183 169 166 157 154 155 150 149 145 143 145 146 147 144 143 145 149 153 157 160 161 162 163 168 169 167 169 172 174 172 170 171 170 166 162 157 150 147 147 145 143 141 139 136 133 132 129 127 127 126 124 126 134 139 138 132 124 117 117 124 136 140 136 121 109 110 114 124 133 139
136 172 192 210 207 190 182 189 190 159 111 209 6 4 26 49 60 90 46 79 113 94 29 43 352 338 186 145 141 150 150 152 153 149 149 148 148 147 147 147 146 146 148 151 155 158 161 162 162 164 168 172 172 175 176 175 176 177 178 174 167 163 157 148 148 149 146 144 147 147 144 140 138 134 133 132 129 127 129 133 134 134 135 133 127 123 126 134 140 140 129 119 117 114 118 128 133
178 184 208 219 187 171 185 190 188 171 4 334 354 20 24 32 94 137 95 77 97 93 56 50 40 49 100 116 134 142 146 153 153 152 154 156 156 154 151 153 152 151 151 151 153 157 160 158 161 166 169 172 175 177 177 177 178 180 178 172 167 163 156 148 149 152 150 152 156 155 151 147 143 140 140 140 135 134 135 134 133 134 137 138 137 136 132 132 135 136 131 125 122 116 113 123 127
185 151 220 220 175 177 198 191 193 222 319 323 337 49 2 353 144 174 167 115 125 104 79 75 81 98 117 130 137 140 149 156 157 160 162 163 163 161 157 158 158 155 156 154 155 160 160 160 162 167 170 173 177 177 178 179 178 179 175 169 167 164 157 154 155 158 158 160 162 160 156 153 149 145 144 142 140 140 141 140 139 138 139 142 140 138 141 141 140 137 135 130 126 120 116 122 123
178 185 230 208 197 237 221 212 218 228 291 314 326 66 358 345 169 197 173 142 182 193 151 145 149 151 144 144 144 144 154 160 165 167 168 167 167 166 162 161 162 159 159 157 160 164 164 164 164 169 173 173 176 179 180 180 177 177 173 170 170 166 161 160 161 164 164 166 167 164 162 159 155 151 147 144 143 144 145 146 147 147 147 147 137 127 134 151 153 149 143 137 132 127 124 126 123
158 205 223 145 175 232 233 223 218 219 249 284 316 354 22 55 124 193 159 148 215 231 202 187 177 168 157 154 153 154 161 165 171 173 171 169 167 168 165 162 161 160 159 158 164 168 167 169 167 170 173 172 177 181 182 181 176 175 175 174 172 166 164 164 164 167 169 171 170 169 168 164 161 157 153 150 148 149 152 154 153 156 154 147 134 119 121 136 156 166 162 150 140 133 127 129 132
163 202 190 131 158 226 254 251 223 207 224 245 298 345 43 124 173 178 177 188 212 241 230 216 182 170 164 160 159 162 167 170 174 177 174 172 169 165 161 157 157 159 161 163 168 171 171 172 167 169 173 172 178 183 182 178 174 175 176 177 174 167 164 162 165 171 175 177 173 172 172 168 167 164 159 155 154 158 161 160 158 157 154 144 131 124 121 119 136 163 168 159 150 144 129 127 135
213 199 175 187 183 230 249 244 220 176 211 259 269 353 70 156 217 179 208 245 312 330 271 212 179 172 168 164 163 167 173 176 178 179 176 174 172 167 161 157 159 162 166 170 173 174 173 173 168 164 167 171 178 185 180 171 173 179 180 178 172 162 160 162 173 184 186 186 182 178 176 174 171 167 165 163 161 165 166 165 163 158 155 149 134 128 125 117 123 134 148 158 155 150 134 126 131
237 213 201 209 191 224 234 214 235 198 232 257 345 313 261 199 194 175 221 268 320 314 249 176 167 168 170 171 172 174 176 178 180 179 178 177 173 167 160 159 164 166 169 172 174 177 177 171 162 150 153 169 181 185 179 174 181 186 184 179 167 165 177 181 184 190 196 197 192 188 186 183 177 171 171 170 166 167 171 173 172 167 163 162 147 134 130 126 120 127 142 149 155 152 138 129 127
231 220 203 189 193 231 240 244 256 249 246 233 192 266 258 193 178 177 219 316 344 328 155 153 159 166 174 179 178 177 177 178 179 177 176 173 166 160 159 162 165 167 171 173 177 180 177 164 148 140 151 168 181 187 186 191 196 190 186 188 184 187 196 194 191 194 199 197 196 204 203 192 180 175 179 178 171 167 172 177 176 176 175 173 157 138 136 135 129 129 134 134 148 153 142 133 128
217 210 203 215 239 266 260 257 254 251 254 163 202 247 122 147 172 182 219 40 91 139 145 150 159 169 177 182 180 178 179 179 179 178 173 166 162 162 163 165 166 170 173 174 178 177 173 157 136 145 165 170 181 195 201 210 215 199 189 194 197 200 202 197 201 206 201 191 197 208 207 201 190 185 190 184 178 175 177 182 182 181 178 172 157 148 152 143 139 135 124 123 140 153 147 139 132
180 185 218 238 272 302 263 262 259 275 257 193 219 268 108 156 233 202 177 144 156 149 150 158 165 175 179 181 181 181 181 176 177 179 171 164 169 170 167 168 171 175 176 178 180 172 160 145 138 159 176 172 180 201 220 229 237 223 195 190 192 202 206 200 209 215 204 200 209 208 200 206 204 203 207 196 190 194 190 191 192 186 180 176 164 161 164 156 156 150 131 128 139 156 154 142 136
151 173 229 249 287 277 231 263 262 233 246 195 199 168 107 169 261 201 154 153 165 158 157 167 172 177 179 179 178 177 175 171 175 179 175 172 174 172 169 171 174 178 184 184 171 148 141 145 157 173 177 179 191 206 220 228 242 245 216 192 187 192 199 205 214 211 204 213 219 209 203 213 217 221 227 215 206 208 207 205 203 193 187 188 182 175 173 168 167 164 148 135 142 163 166 155 143
147 160 254 270 322 263 212 251 248 194 227 159 159 166 137 197 208 141 151 158 164 167 167 172 177 182 181 181 173 164 162 163 170 178 174 156 138 147 167 175 175 178 189 183 154 159 179 182 179 182 183 195 205 213 223 226 235 243 230 215 204 182 192 214 220 210 209 223 221 209 210 220 225 229 233 229 221 217 216 214 213 204 196 199 201 193 181 172 171 170 162 143 147 170 177 171 157
164 133 277 283 313 253 195 185 136 181 205 148 168 227 207 205 200 143 158 166 165 172 177 178 182 186 185 180 168 155 152 152 162 166 147 128 133 152 172 178 180 183 187 176 164 185 196 187 181 190 195 203 212 220 229 233 236 239 234 232 221 193 206 226 227 219 225 235 227 218 222 227 232 236 237 236 231 225 220 215 215 213 206 207 207 203 192 177 175 177 176 160 155 171 181 176 163
145 148 170 305 245 208 173 133 160 180 180 156 190 239 229 213 207 166 169 173 172 177 182 185 186 189 190 181 168 157 150 149 155 142 132 160 180 180 178 177 185 188 184 177 175 188 197 191 188 190 193 201 209 218 233 237 237 237 234 238 225 208 220 237 240 237 245 248 241 244 242 237 239 244 244 243 238 232 224 217 215 215 214 211 209 209 198 182 180 187 186 177 169 171 177 177 166
53 191 179 181 222 229 293 203 199 208 77 163 203 230 242 234 190 167 172 177 180 184 186 189 190 191 192 183 170 166 154 147 148 136 148 187 191 183 189 187 189 193 187 185 183 183 192 196 192 191 193 198 200 207 231 235 232 235 238 241 236 233 231 245 264 264 272 271 266 272 263 254 252 247 244 243 241 230 219 217 214 214 214 207 209 208 196 187 190 202 198 189 182 174 176 183 175
54 252 195 167 197 235 302 167 222 251 91 184 222 238 237 266 172 167 170 180 184 189 190 192 195 192 194 190 183 179 161 148 155 151 160 182 184 186 200 195 191 196 193 193 190 184 188 193 193 196 200 200 197 197 220 229 227 234 238 228 234 253 258 293 323 360 351 326 322 307 272 284 282 255 231 230 232 221 208 217 215 211 209 200 207 207 197 196 203 219 213 196 187 180 182 185 174
166 259 177 184 208 212 259 166 199 285 174 204 217 228 229 349 140 171 173 184 186 191 193 192 194 192 195 196 196 193 181 169 175 173 166 175 187 192 199 197 195 199 198 198 195 188 187 190 191 195 199 201 198 196 210 220 221 220 213 207 210 206 213 301 348 20 16 335 349 28 115 256 296 285 221 208 213 211 204 219 216 208 206 198 200 207 206 207 216 233 224 206 184 169 176 172 156
174 183 165 195 225 216 257 247 124 107 210 217 185 216 233 223 157 178 178 187 192 196 193 190 193 194 195 198 202 200 195 193 192 190 177 176 188 193 194 195 199 201 201 202 197 188 188 187 187 190 191 191 193 196 204 209 204 198 191 193 195 186 194 224 32 40 87 166 131 74 108 115 85 57 168 185 199 213 217 231 226 214 215 208 201 211 220 223 228 230 220 208 171 151 156 152 140
153 158 165 189 228 241 253 256 241 180 228 228 201 216 227 196 177 185 181 186 196 197 191 193 194 194 199 201 204 203 204 205 199 199 188 178 184 190 190 194 200 202 202 202 194 186 189 186 179 183 187 188 190 192 197 196 186 183 184 185 185 180 170 96 90 95 128 145 128 101 113 115 108 102 97 141 194 224 229 235 234 230 241 245 226 224 231 233 226 213 203 187 151 133 127 126 128
127 132 171 212 240 258 254 245 299 267 237 235 208 221 228 195 183 187 182 185 196 200 196 197 197 198 203 205 205 205 209 206 198 200 191 181 183 187 191 195 201 202 202 202 193 187 190 187 178 181 188 191 191 192 193 191 184 179 180 178 174 160 139 123 117 121 129 129 123 119 127 122 120 127 122 117 165 227 221 224 224 235 251 252 242 237 230 220 201 194 187 165 141 131 121 125 138
122 160 214 237 222 251 265 163 347 304 227 247 139 217 230 186 189 187 184 192 200 204 201 198 201 206 210 211 210 208 209 194 189 194 182 182 185 188 194 197 199 200 199 200 196 193 190 187 183 184 188 190 192 196 193 192 189 179 172 168 163 151 140 134 123 114 112 110 111 113 114 114 119 126 122 121 135 162 175 193 215 247 259 256 254 248 236 217 191 184 178 162 140 134 130 141 149
131 156 233 230 204 257 277 122 14 24 214 257 114 194 214 43 178 183 192 206 207 210 211 208 206 212 217 216 211 209 209 195 193 192 180 185 185 187 197 199 199 200 200 202 200 195 189 185 187 188 189 186 190 196 193 191 185 172 164 160 158 149 137 128 118 112 110 109 107 105 106 108 115 118 114 119 124 126 130 136 264 285 284 274 264 250 239 222 192 182 184 175 148 133 128 147 163
178 168 214 217 151 241 214 124 38 30 269 254 136 142 49 64 147 167 214 199 174 192 207 207 212 221 223 218 215 210 210 206 199 194 183 187 184 184 197 202 200 198 201 206 204 198 190 188 191 193 192 189 192 197 193 188 173 159 155 152 149 141 131 125 118 116 115 113 109 104 103 104 106 108 115 121 119 111 103 78 25 347 326 305 277 233 219 214 195 181 186 183 165 144 135 150 173
214 212 215 221 191 216 236 57 36 203 49 67 120 134 88 89 165 196 338 68 110 125 177 188 205 228 231 223 220 216 216 214 203 197 189 187 186 185 194 202 200 196 200 205 206 202 196 195 196 196 196 194 196 197 192 183 166 154 148 142 138 131 128 129 126 127 127 122 113 102 99 103 103 99 111 127 123 105 85 48 21 7 345 328 304 237 199 204 198 180 180 185 181 163 151 155 164
226 219 215 223 203 200 255 309 155 177 119 63 45 177 151 89 176 197 203 211 182 143 197 212 208 225 233 226 223 219 219 217 204 197 195 189 187 187 192 201 199 195 199 204 205 204 200 200 201 199 197 196 197 195 190 181 167 158 151 144 141 136 135 139 138 140 141 133 120 104 100 113 110 97 101 117 116 94 57 24 12 1 338 332 321 282 196 190 187 181 196 202 198 189 179 174 163
218 212 202 206 189 154 222 239 209 195 116 63 333 266 156 115 173 193 198 214 215 203 218 226 218 225 231 226 224 221 214 213 204 192 195 196 189 187 190 198 200 197 197 198 199 202 202 202 203 201 198 197 195 191 185 178 168 163 159 151 146 146 147 150 151 150 148 141 128 108 105 118 123 110 105 108 105 78 33 26 20 8 360 16 42 58 91 144 163 176 201 210 206 204 199 192 173
197 169 170 175 184 192 188 185 173 104 71 113 346 325 164 145 127 260 200 203 217 227 225 223 216 221 229 223 217 218 215 212 207 195 195 199 193 192 193 193 199 201 195 191 192 199 205 205 203 201 198 195 191 186 182 178 171 167 164 153 147 149 149 150 153 153 149 144 132 119 112 115 119 116 114 107 97 68 36 49 52 41 57 67 75 81 86 99 119 149 181 193 190 190 187 186 181
277 124 140 148 161 171 153 147 116 60 236 186 68 352 190 156 115 201 199 196 210 224 227 223 215 215 224 223 211 210 212 209 207 200 192 196 193 194 194 189 196 201 195 191 192 199 204 203 200 196 191 188 185 182 179 178 177 174 167 154 147 148 145 146 150 150 149 146 138 129 120 115 111 106 105 98 90 67 44 57 79 68 76 81 84 85 87 93 107 131 155 166 161 163 166 171 181
136 130 107 93 88 82 84 117 117 93 227 194 26 347 221 172 146 160 182 194 213 231 232 225 221 219 220 222 212 204 201 199 201 196 188 191 189 190 192 189 192 195 196 196 195 196 195 192 189 184 180 179 179 179 178 178 180 180 171 156 149 149 147 146 148 147 147 147 144 135 126 119 109 95 90 91 91 69 51 62 82 79 78 87 88 85 86 90 98 110 117 126 135 148 156 159 169
145 139 100 92 70 50 61 39 67 173 203 170 357 334 279 189 184 183 169 139 314 300 288 256 239 234 225 222 217 205 198 193 189 185 181 180 179 184 188 184 185 191 195 196 192 189 186 181 176 171 172 175 177 178 177 177 181 185 175 161 155 155 153 150 148 147 148 148 145 137 130 123 111 99 96 97 99 77 62 66 77 86 92 101 97 84 88 92 93 99 103 111 120 127 136 140 144
146 139 117 129 72 35 104 31 97 202 187 97 360 322 273 211 182 181 289 360 332 294 289 296 292 268 242 224 215 205 198 189 183 180 172 166 167 176 181 179 181 187 191 192 192 188 179 170 166 161 163 170 172 173 174 176 182 186 178 167 165 162 156 153 149 149 152 152 146 137 127 122 115 111 111 113 112 96 80 76 84 99 104 106 98 87 103 107 104 108 110 113 115 114 117 123 129
149 129 141 163 155 161 197 207 205 221 199 76 357 299 239 241 269 314 315 331 332 304 286 290 290 285 278 240 217 204 192 187 185 178 168 164 165 172 181 181 178 184 192 192 191 183 168 160 159 152 149 159 167 170 176 182 186 187 182 176 174 166 157 151 148 151 156 157 152 137 124 126 127 125 129 126 119 108 96 93 101 110 103 89 83 92 110 115 112 113 112 111 112 111 110 113 119
185 160 162 175 156 158 196 184 207 250 222 80 338 265 202 200 313 296 310 328 332 322 309 298 289 288 302 275 205 177 161 170 168 152 146 148 154 167 180 185 187 194 193 189 184 171 148 132 124 115 117 150 172 180 186 189 190 189 186 183 178 167 159 153 148 150 154 161 158 134 121 137 143 139 141 133 122 111 96 99 107 114 111 98 104 112 115 119 118 117 113 109 110 111 111 112 115
178 150 157 178 168 177 209 200 198 211 157 85 167 216 185 157 107 330 319 330 343 345 343 345 345 337 34 93 117 120 115 113 112 110 109 107 108 136 182 194 201 201 194 182 145 110 96 89 87 90 124 186 190 190 192 191 193 194 189 184 175 164 161 159 153 146 144 155 159 133 123 139 151 149 148 137 125 105 82 93 99 100 105 104 115 126 124 126 128 123 118 117 117 116 117 119 121
130 71 150 185 185 156 140 164 164 172 141 124 188 227 273 187 310 323 316 349 10 11 11 26 51 76 92 95 96 99 101 104 106 105 102 103 99 81 41 347 256 229 208 132 100 94 92 94 102 149 216 216 203 199 199 197 199 199 189 179 171 165 163 166 164 150 136 143 151 131 122 136 150 153 152 145 131 103 81 90 94 93 97 99 113 132 137 138 138 133 130 129 125 124 125 125 125
134 170 179 180 92 117 118 119 55 7 202 174 159 225 254 217 180 182 186 112 53 30 27 51 71 89 98 100 107 110 107 104 98 91 81 68 88 95 73 13 284 270 197 104 102 106 133 167 183 202 218 218 209 207 207 204 201 199 189 177 174 171 168 174 178 159 134 136 147 135 125 138 147 150 155 156 151 128 103 98 96 94 94 92 100 118 133 143 141 136 134 131 127 124 123 122 122
144 179 166 137 74 84 115 149 98 137 207 175 96 264 209 199 171 145 156 128 93 69 61 81 92 99 105 107 115 118 116 111 98 85 71 31 11 99 108 180 251 268 101 113 123 158 185 193 201 205 211 214 213 213 212 208 204 202 196 187 184 181 179 185 188 171 138 136 148 144 137 149 153 151 156 163 167 155 135 120 110 101 98 94 94 100 107 115 122 124 122 118 116 114 110 107 109
45 151 137 134 187 170 153 166 156 180 199 163 142 230 255 213 168 39 41 39 57 78 80 92 105 107 110 110 112 115 117 116 109 101 92 56 335 74 98 156 232 234 115 129 147 174 186 198 203 199 203 210 214 215 213 212 212 215 215 206 196 189 188 194 192 185 159 147 156 157 151 158 163 162 161 166 175 171 157 146 134 121 112 105 101 102 102 102 108 116 116 113 111 111 106 101 101
58 117 116 25 273 176 168 162 169 189 191 159 153 193 224 186 12 335 319 343 4 90 106 106 114 104 84 67 62 74 78 91 107 112 113 125 219 124 99 111 154 142 124 137 155 174 189 203 205 198 198 204 210 213 214 217 222 229 229 213 200 192 193 201 198 199 194 168 167 167 158 161 171 173 170 169 176 178 171 165 158 148 136 123 114 111 110 107 107 112 116 117 116 116 112 106 104
122 153 158 141 73 111 177 107 47 198 178 161 171 187 182 84 14 308 295 313 321 293 133 128 105 50 27 23 13 19 64 69 76 93 103 112 137 120 109 113 124 125 126 138 155 173 185 199 207 204 201 209 220 222 222 227 230 234 229 209 199 195 199 208 204 205 211 191 182 179 171 174 181 181 178 173 173 178 180 179 179 178 169 150 136 125 121 117 112 113 117 119 118 119 118 116 115
178 180 177 158 129 142 169 166 143 325 160 164 184 179 141 45 358 308 302 305 303 263 136 121 80 54 39 36 35 30 48 61 63 71 86 99 97 90 90 97 105 110 117 132 149 168 184 197 206 205 208 222 231 229 228 231 230 229 222 207 202 202 206 212 208 210 219 207 196 195 191 189 188 187 186 180 173 175 182 185 185 188 192 188 179 164 144 130 125 125 125 129 129 127 126 127 129